RH
100 100 100 100 100 100 100 100 99 99 98 98 98 97 95 93 90 87 86 86 87 91 97 99 100 100 100 100 99 99 99 99 99 98 98 97 96 95 94 91 89 88 87 88 89 89 88 89 89 89 88 88 88 88 89 90 90 91 91 92 93 93 92 92 92 92 93 93 92 92 93 93 92 92 93 92 92 92 91 91 91 92 95 95 96 96
100 100 100 100 100 100 100 100 99 99 99 98 96 94 91 91 90 89 88 88 89 92 96 98 100 100 100 99 99 99 98 97 97 97 96 96 94 93 91 88 86 85 84 85 87 89 90 90 89 88 87 87 88 88 89 89 89 89 89 90 90 91 91 91 91 91 92 91 90 90 91 91 91 91 91 91 91 91 92 93 93 94 95 95 96 97
100 100 100 100 100 100 100 99 99 99 98 97 94 91 89 91 93 94 92 90 92 95 98 99 99 99 99 99 99 97 94 93 93 92 90 88 87 86 86 85 83 81 80 84 89 93 92 91 89 88 88 90 91 90 90 89 89 88 88 88 88 88 88 88 88 88 88 88 87 87 88 88 88 89 89 89 89 89 90 91 92 93 94 95 95 95
100 100 100 100 100 100 99 99 98 98 98 97 94 92 92 93 95 95 93 92 93 95 99 99 99 99 98 98 96 93 89 87 85 83 80 78 77 78 79 82 82 81 81 86 91 94 92 91 90 90 91 92 92 91 91 90 89 88 87 87 86 86 86 85 85 84 84 84 84 85 85 85 86 86 87 87 88 88 88 89 89 91 92 93 94 94
100 100 100 100 100 100 100 99 98 97 97 97 96 95 95 96 96 96 94 94 94 96 98 98 97 96 95 94 90 87 86 80 74 71 71 74 77 81 83 87 89 89 89 92 93 93 92 91 91 90 90 90 91 91 90 89 87 85 85 84 83 83 82 81 80 79 78 77 77 78 79 80 81 82 83 84 85 86 86 86 87 87 87 89 90 91
100 100 100 99 99 99 100 99 98 98 98 98 98 98 97 98 97 97 96 97 97 97 97 96 95 94 93 89 83 80 83 73 65 61 65 73 79 85 91 92 92 92 93 94 93 92 91 90 89 88 87 88 88 88 87 86 84 83 82 82 80 79 77 75 73 71 69 68 68 68 69 70 72 73 75 77 78 80 81 82 83 83 84 84 85 86
100 100 100 99 99 99 99 99 99 99 98 98 98 98 97 97 96 96 97 98 98 97 96 95 94 92 91 86 79 74 74 67 61 57 57 67 76 84 89 88 88 88 89 88 87 86 85 86 85 84 83 83 83 83 83 82 81 81 81 80 79 76 74 72 69 67 65 63 61 60 59 60 61 63 65 67 69 71 73 75 77 78 79 80 80 81
100 100 100 100 99 99 99 99 99 99 99 98 98 96 95 95 94 94 94 96 97 97 96 95 94 93 90 86 79 72 68 64 61 57 54 57 63 70 76 77 77 78 78 78 78 78 78 79 78 78 78 78 79 80 81 80 80 81 82 81 79 76 74 71 68 65 63 60 58 55 55 55 57 59 61 62 64 64 65 69 71 73 75 76 76 77
99 100 100 100 100 99 99 99 99 98 99 97 96 94 94 93 93 92 91 94 96 97 96 95 95 94 91 87 80 73 69 66 64 61 57 54 54 56 60 61 63 64 66 68 71 73 75 76 76 77 78 79 80 82 82 82 83 83 83 82 79 77 74 71 68 65 61 58 55 53 53 57 61 64 66 67 65 63 62 65 68 70 72 72 73 74
99 99 100 100 99 99 99 98 98 97 98 95 93 92 91 91 91 91 91 92 94 97 97 96 96 95 92 86 80 75 70 68 66 63 61 58 56 55 55 55 56 57 58 60 64 69 75 77 78 78 78 79 79 79 80 80 80 80 80 79 77 75 73 70 67 64 61 58 56 55 57 63 68 72 75 75 74 71 69 67 67 68 69 70 70 71
100 100 100 100 99 98 98 96 95 95 95 93 92 91 91 90 89 89 90 91 93 94 95 96 97 96 94 86 79 74 71 69 66 64 62 61 60 59 59 59 59 59 59 58 59 62 68 74 76 77 76 75 73 72 71 70 70 70 71 71 72 72 70 68 66 65 65 65 65 65 68 72 75 78 80 82 83 82 80 77 75 72 70 70 70 70
100 100 100 99 99 98 96 93 92 92 93 93 92 91 91 91 88 86 86 88 89 90 91 93 95 97 95 87 79 73 69 68 66 64 63 63 63 63 63 63 63 62 62 61 60 59 61 66 69 72 72 69 67 65 64 62 62 62 62 64 65 66 66 68 69 71 75 77 78 79 80 81 80 80 81 85 87 87 88 87 86 84 80 79 77 76
99 99 99 99 98 97 95 93 92 93 94 94 91 89 89 91 89 86 85 84 84 84 85 86 90 93 92 85 77 71 68 66 65 64 64 64 65 66 66 65 65 64 63 63 62 62 61 63 66 68 69 67 65 64 63 61 60 59 57 56 59 64 69 74 78 82 84 86 87 88 88 88 87 85 85 86 87 88 89 88 88 88 87 86 85 83
99 99 99 98 98 96 94 92 91 92 94 91 88 85 85 88 88 88 86 84 81 79 78 79 83 86 84 79 74 69 67 66 65 65 65 65 66 66 66 66 65 65 65 65 64 64 63 62 63 65 66 66 65 64 63 61 57 52 45 50 61 72 80 85 87 89 89 91 92 92 92 92 91 89 87 87 88 88 87 86 87 87 87 87 86 85
99 98 98 97 97 95 93 90 89 88 89 86 84 81 81 83 86 88 87 85 80 76 73 73 74 75 75 72 69 68 66 66 66 67 66 66 66 65 66 66 66 67 66 65 63 60 56 54 54 56 59 61 62 62 60 54 49 47 52 66 76 82 87 89 91 92 93 94 94 93 94 94 93 91 88 88 87 87 87 86 86 86 86 85 85 84
98 97 96 96 95 94 92 90 88 86 85 83 81 79 77 78 82 84 85 84 80 75 70 69 69 68 69 69 69 68 67 68 68 68 67 67 67 66 67 66 66 65 62 59 54 50 46 45 46 49 54 58 59 58 53 50 53 62 74 80 84 86 89 91 93 94 95 94 94 94 94 94 94 93 92 91 90 89 89 88 87 87 86 86 86 85
97 95 94 94 93 92 91 90 87 85 82 80 79 77 74 74 76 78 79 80 78 75 71 69 67 64 62 66 67 67 67 68 68 68 68 68 67 65 65 63 60 57 53 49 46 43 42 44 47 51 56 57 55 52 50 59 69 76 81 83 86 89 90 92 94 95 94 94 94 94 95 95 95 95 94 94 92 91 90 88 87 87 87 87 86 86
95 93 92 91 91 90 90 89 88 85 81 79 77 76 73 71 72 73 74 75 74 73 70 68 65 61 54 63 63 62 63 66 67 68 68 66 63 61 58 56 53 50 48 45 44 44 45 48 52 55 57 55 51 50 58 69 75 78 81 85 88 90 92 93 94 93 88 87 90 94 96 96 97 97 97 96 96 95 93 94 92 89 87 87 86 86
92 90 89 88 87 87 87 88 87 85 81 78 76 75 73 70 69 69 69 69 69 68 66 64 63 60 55 58 60 62 63 65 67 67 67 64 60 55 51 50 49 48 48 46 45 45 47 49 52 53 53 52 49 50 61 70 76 79 81 86 89 91 93 94 91 86 79 86 91 94 97 97 98 98 98 98 97 97 98 98 97 95 92 89 89 90
87 86 85 84 83 83 84 84 84 82 78 75 73 72 71 69 68 67 66 65 64 63 62 62 61 60 58 58 59 62 66 68 69 69 68 62 56 50 48 50 51 52 51 48 47 46 45 47 48 49 49 50 50 51 56 69 76 79 83 86 89 92 93 89 83 78 79 88 93 95 97 97 97 97 97 97 96 96 97 96 97 98 98 97 98 97
80 81 81 80 79 79 79 79 78 77 74 72 70 69 69 67 66 65 63 62 61 60 59 60 60 61 61 62 64 65 68 70 70 68 66 60 53 50 51 54 56 55 53 50 47 46 44 45 46 47 48 51 51 52 53 67 75 80 84 87 90 91 88 79 77 80 89 92 94 95 96 96 96 96 96 96 96 95 95 93 92 92 94 96 96 97
75 76 76 75 74 73 73 74 75 74 72 69 68 66 65 64 63 62 61 59 59 60 61 62 63 64 65 65 66 67 68 69 69 68 68 65 58 53 53 58 59 57 53 51 48 46 45 46 47 49 50 51 51 51 51 61 72 81 86 89 90 87 81 81 86 93 95 95 96 96 96 96 96 96 96 96 96 96 96 95 95 94 92 93 92 92
71 71 72 70 69 67 67 69 70 70 68 66 64 63 62 61 61 60 59 60 61 63 65 66 67 67 66 65 65 65 65 66 68 70 69 67 62 58 58 60 60 57 53 51 49 48 47 48 49 50 50 50 50 50 50 58 73 86 89 89 86 83 83 89 93 94 95 96 96 96 96 96 96 97 96 96 96 96 96 96 96 96 97 96 96 96
68 68 68 66 65 64 63 64 66 66 65 64 63 62 62 63 63 63 64 65 65 66 67 67 67 66 63 62 61 61 61 65 69 71 70 67 63 61 61 61 59 56 53 52 50 49 49 49 50 51 49 48 49 50 52 63 78 90 90 89 88 88 90 90 91 92 93 94 95 96 96 97 97 97 97 97 97 97 96 96 96 96 96 97 97 97
66 66 65 64 63 62 61 62 62 63 63 63 64 64 65 65 66 66 67 68 69 68 68 67 65 62 59 57 59 61 62 67 71 72 69 65 61 58 59 60 58 56 54 52 51 50 50 50 50 50 48 47 50 55 60 75 85 90 89 88 88 87 86 86 87 88 88 90 92 93 94 95 96 96 96 96 97 97 97 97 96 96 96 96 96 97
64 64 63 62 62 61 61 62 63 63 63 64 65 66 66 67 68 69 71 70 69 67 65 63 62 60 58 56 58 61 65 68 70 71 68 62 60 59 56 57 57 57 56 53 52 51 50 50 50 49 48 51 56 64 77 86 89 89 88 85 82 80 77 76 76 76 79 85 89 90 92 93 94 94 95 95 96 96 96 96 96 96 96 96 96 96
65 64 63 63 62 62 63 64 64 65 65 66 67 68 68 69 70 70 69 68 65 63 61 62 61 60 61 58 56 58 65 66 68 68 67 63 60 57 55 57 58 58 58 56 53 51 50 50 50 51 53 57 63 72 86 88 87 84 80 76 71 68 65 62 61 61 67 79 86 90 91 91 92 93 94 95 95 95 95 96 96 96 96 97 96 95
70 70 69 69 69 69 70 70 69 69 69 69 70 70 71 70 69 66 63 63 62 62 62 65 63 61 63 62 59 56 58 59 60 62 66 67 63 59 57 59 61 62 61 59 55 51 49 50 53 56 61 65 68 72 78 80 78 75 70 67 63 61 59 58 60 64 70 81 87 90 91 92 92 93 94 94 95 95 95 95 96 96 96 96 96 95
79 80 78 80 83 86 86 84 84 83 81 78 76 75 75 72 68 63 61 63 65 66 67 69 70 71 70 72 67 60 52 51 52 56 63 65 62 59 59 62 64 65 64 59 55 52 51 53 57 62 68 70 71 72 73 73 71 69 66 65 63 60 56 57 62 69 76 81 86 89 91 92 93 93 93 94 94 94 95 95 95 95 94 95 96 96
78 79 80 84 88 92 93 93 94 95 94 92 89 87 86 81 74 69 68 70 70 70 72 73 75 77 79 79 73 65 57 52 51 55 59 60 61 62 63 65 66 66 65 60 56 54 54 57 62 68 73 74 73 72 71 70 69 68 68 66 61 56 54 58 64 69 74 77 80 84 88 90 91 92 92 92 92 93 94 94 94 94 92 94 95 96
77 78 80 82 85 89 92 93 95 96 97 97 97 97 96 92 86 81 79 78 77 75 74 74 74 76 79 77 70 62 57 56 60 63 63 62 64 67 68 67 67 67 67 63 59 57 59 59 65 72 75 76 75 74 72 71 71 70 69 62 56 54 57 63 68 70 72 73 75 77 79 82 84 85 85 86 86 88 91 94 94 94 94 94 95 96
75 77 78 79 81 84 87 90 92 94 95 96 97 97 97 96 94 91 88 85 81 77 74 71 69 69 72 72 66 57 49 58 67 71 69 65 65 67 68 67 68 69 70 68 66 65 69 63 64 68 71 73 74 73 72 71 69 66 61 55 53 56 62 67 71 72 73 73 72 72 73 74 75 75 76 76 77 80 86 91 94 95 95 95 95 96
72 73 75 76 78 79 81 84 86 88 90 92 93 93 92 92 92 91 90 86 82 76 70 66 63 62 62 64 60 54 48 55 61 64 65 64 64 65 65 65 67 69 72 74 74 73 75 70 66 64 64 65 66 66 65 63 60 56 51 51 54 59 63 67 69 71 72 72 71 71 71 71 70 70 70 70 71 74 79 88 93 96 95 95 95 96
71 72 73 75 76 77 78 79 80 81 82 83 84 84 84 84 84 83 82 80 77 72 66 61 58 56 55 57 56 52 45 53 56 57 60 61 63 65 67 67 69 72 76 78 79 79 78 76 73 69 66 63 61 59 56 54 52 50 49 52 56 59 61 64 67 68 69 69 69 69 69 69 69 69 69 69 70 73 76 84 91 95 96 96 96 96
72 73 74 75 77 78 79 79 79 79 79 79 78 78 78 77 76 75 74 72 70 67 63 60 57 54 53 53 52 50 43 51 55 57 59 61 65 69 72 73 74 76 78 80 80 80 80 79 77 75 73 71 66 60 53 51 51 51 52 55 57 59 61 64 66 68 68 68 68 68 68 68 68 69 70 72 73 74 76 82 87 91 94 96 96 96
74 75 75 76 76 77 78 78 78 78 77 77 76 76 74 73 71 69 67 66 65 64 62 60 58 56 54 53 52 50 47 52 56 59 61 63 67 71 75 76 77 78 80 80 81 80 79 78 78 78 78 77 73 65 55 52 52 54 56 56 57 59 62 66 69 70 69 69 68 68 68 69 70 71 72 74 75 75 76 77 78 80 83 88 92 94
71 71 72 72 72 72 73 72 71 70 69 68 68 67 65 63 61 60 59 59 60 60 60 58 57 56 56 56 55 53 53 57 61 63 65 67 70 73 74 77 78 78 79 80 81 82 81 80 80 80 79 77 72 66 58 56 55 55 55 55 58 61 66 70 72 72 71 69 69 69 69 70 71 72 73 74 75 75 76 75 75 74 74 76 79 83
59 60 60 61 61 61 61 60 59 58 56 55 53 52 51 50 50 51 52 54 55 56 56 55 55 55 56 58 58 58 59 61 63 65 67 69 72 75 76 78 79 80 80 80 81 83 84 84 83 80 75 72 69 66 64 63 63 62 60 59 61 65 70 73 75 74 72 70 69 69 70 71 72 73 74 74 74 74 74 74 74 74 73 72 72 73
56 56 56 56 56 54 52 50 48 47 46 45 45 44 44 44 45 46 48 51 52 53 53 54 55 56 57 59 61 62 63 64 65 66 66 68 70 73 76 79 80 81 81 82 84 86 87 86 85 82 77 73 70 69 70 71 71 70 68 66 65 67 71 75 76 76 74 71 71 71 72 73 74 74 74 74 73 73 72 72 72 71 72 71 71 70
64 65 66 65 62 58 53 49 47 45 44 46 46 47 48 48 49 49 50 52 53 54 56 57 58 60 62 64 65 65 65 64 64 63 63 63 65 69 72 76 78 80 82 84 86 88 89 89 88 86 84 80 78 77 78 79 79 78 79 80 78 75 69 73 74 75 74 72 72 73 74 74 74 74 74 73 73 72 71 69 69 68 68 69 69 68
72 70 70 71 69 66 61 56 52 49 47 49 51 52 54 54 54 55 56 56 57 58 59 61 63 64 65 66 66 65 63 60 58 56 55 56 59 64 69 73 77 79 82 84 85 87 88 88 89 89 88 88 88 88 88 88 87 87 91 91 86 79 70 70 71 72 72 72 72 72 72 72 72 72 72 71 71 70 69 68 67 67 67 67 67 67
80 78 76 75 74 73 70 66 61 57 54 52 52 53 55 57 58 59 60 60 61 61 62 63 65 66 66 64 61 57 53 51 49 49 50 53 57 62 68 72 77 80 82 83 84 85 85 86 88 90 91 92 92 91 91 91 90 91 92 91 88 82 75 71 71 72 71 72 72 72 71 71 71 70 69 69 69 69 69 68 68 67 67 67 66 66
85 85 84 82 80 78 76 74 71 67 63 59 57 56 56 57 59 60 62 63 64 64 65 65 64 63 60 56 51 47 45 47 49 52 54 58 62 66 70 74 77 80 82 83 83 84 85 87 89 91 93 93 93 92 92 93 92 92 92 92 91 90 85 75 72 73 73 72 72 72 72 72 72 71 69 68 68 67 68 68 68 68 67 66 66 65
87 90 92 91 87 84 80 77 75 73 71 69 66 63 62 61 61 61 62 63 63 64 64 62 61 58 55 51 48 46 47 52 56 60 63 66 70 73 75 77 78 80 83 83 85 86 87 90 92 92 93 93 93 93 93 93 93 93 93 92 93 93 92 82 75 71 71 71 71 71 72 74 74 73 71 69 68 68 68 68 68 68 68 67 66 65
89 91 93 93 92 88 84 80 78 77 77 76 75 72 70 68 66 65 65 65 64 63 62 60 58 57 57 56 55 54 55 58 62 66 69 72 74 76 77 77 78 80 83 85 86 87 90 92 93 93 93 93 93 93 93 93 93 92 92 91 92 91 88 82 77 74 72 70 70 71 74 77 77 76 73 70 69 68 68 68 68 68 68 68 68 67
89 90 90 90 90 88 86 83 82 81 81 80 79 77 75 73 71 70 69 68 66 64 61 59 59 60 61 62 63 64 65 66 66 68 70 72 74 76 77 78 78 80 83 86 87 89 91 91 91 92 92 92 93 93 93 93 93 92 93 91 90 90 88 82 77 75 75 74 74 74 77 80 80 79 76 73 70 68 67 67 67 68 68 69 69 68
89 89 89 88 88 87 86 85 84 83 82 81 80 79 78 77 75 73 71 69 66 64 61 60 60 61 63 65 67 69 71 72 71 71 71 73 75 77 77 77 79 80 82 85 87 89 91 90 91 92 93 93 93 92 92 92 92 92 92 92 91 90 89 83 78 76 78 78 77 78 81 82 82 80 79 77 73 70 67 66 66 67 68 69 69 69
90 90 90 89 88 88 87 85 84 84 83 82 81 81 81 80 79 77 74 71 67 64 62 61 61 61 62 63 65 67 69 71 72 74 75 77 79 79 78 77 78 80 83 85 86 88 89 89 90 91 93 93 93 93 92 92 92 92 92 92 92 92 92 86 80 77 78 79 80 82 85 85 85 84 84 81 77 71 67 65 65 66 68 69 70 70
91 91 90 90 90 89 87 85 84 83 83 82 82 81 82 82 82 80 77 74 70 67 65 63 62 61 61 61 61 63 65 67 70 72 75 78 80 81 79 76 76 78 82 86 87 88 89 89 90 91 92 93 93 93 93 92 92 92 92 92 92 93 93 87 82 78 79 80 81 84 86 87 88 89 90 88 83 77 71 68 66 66 68 70 70 70
91 91 90 91 90 88 86 84 83 83 82 81 81 81 82 83 83 83 82 78 75 72 69 66 64 63 62 61 60 61 62 64 66 68 71 75 78 81 81 78 77 77 82 85 86 87 89 90 91 91 92 92 93 93 93 93 93 93 93 93 93 93 93 89 84 79 80 81 84 86 88 89 90 92 93 92 90 86 82 76 71 68 68 70 71 72
91 90 89 89 88 86 84 83 82 81 80 79 80 81 82 83 84 84 84 82 80 77 73 70 68 66 65 64 62 62 62 63 64 65 67 70 75 78 81 80 80 81 84 86 85 85 85 85 85 84 82 83 86 89 90 92 93 93 93 93 93 93 93 90 86 82 81 84 86 88 89 90 92 93 93 93 93 92 91 85 78 73 72 74 76 77
Wind_Speed
18 18 18 17 17 16 15 14 13 13 12 12 12 12 13 12 12 12 11 10 11 11 13 14 14 13 12 10 9 8 8 8 7 7 7 6 6 6 6 6 6 5 4 4 4 4 4 4 4 3 2 1 0 1 1 2 2 2 3 2 2 2 3 2 2 2 1 1 1 1 2 2 3 3 3 3 3 3 3 3 4 4 5 5 5 6
18 18 18 17 17 16 15 13 13 12 12 11 11 11 12 12 12 12 11 10 10 10 11 12 12 13 12 11 9 8 8 7 7 6 6 6 5 5 5 5 5 4 4 3 3 3 3 3 2 1 0 1 1 1 1 2 2 2 3 3 2 2 2 2 2 2 2 1 1 2 2 3 3 3 3 3 3 3 3 4 4 4 5 5 5 5
20 20 19 18 16 15 14 13 12 12 11 10 10 10 10 11 11 11 11 10 9 9 9 10 10 11 11 11 10 8 6 6 5 5 4 4 4 3 3 3 3 3 2 2 1 1 1 1 1 1 2 2 2 1 1 1 1 2 2 2 2 2 2 2 2 3 3 3 3 3 4 4 4 4 4 4 4 4 4 4 4 4 5 5 5 5
20 21 20 18 16 15 14 12 11 11 10 10 9 9 10 10 11 11 11 10 9 8 8 8 9 9 10 9 8 6 4 3 3 2 1 1 1 1 1 1 2 2 1 1 1 1 1 1 1 2 2 2 1 1 0 0 1 1 2 2 2 3 3 3 3 4 4 5 5 5 5 5 5 5 5 5 6 5 5 5 5 5 5 5 5 6
19 20 20 18 16 15 14 12 10 9 9 9 9 9 9 9 10 10 10 10 9 8 8 8 8 8 8 7 6 4 2 2 2 1 1 1 1 2 2 3 3 4 3 3 2 2 1 1 1 1 1 1 0 1 1 2 2 3 3 4 4 4 4 4 5 5 6 6 6 6 6 7 7 7 7 7 7 7 6 6 6 6 6 6 6 6
19 20 20 18 17 15 14 12 10 9 9 9 9 8 8 8 9 9 9 9 9 9 8 8 7 7 7 6 6 6 4 3 3 2 2 3 3 3 3 3 3 3 3 3 2 2 2 1 1 0 0 1 1 2 3 3 4 4 4 5 5 5 5 6 6 7 7 7 7 8 8 8 8 8 8 8 8 8 7 7 7 7 6 6 6 6
20 20 20 18 17 15 13 12 11 11 11 11 10 9 9 8 8 9 9 9 10 10 9 8 7 7 7 6 6 6 5 4 3 3 3 3 3 3 2 2 2 2 2 2 1 1 1 1 1 1 2 2 3 3 3 4 4 4 5 5 6 6 6 7 7 7 8 8 9 9 9 9 9 9 9 9 9 8 8 8 7 7 7 7 7 7
20 20 20 18 15 14 14 13 12 12 12 12 12 11 10 10 9 9 9 9 9 9 9 8 8 7 7 6 6 5 5 4 3 3 2 3 3 3 3 3 3 3 2 1 1 1 2 2 3 3 3 3 3 3 4 4 4 5 5 6 6 7 7 8 8 9 9 9 10 10 9 9 9 8 8 8 9 9 8 8 8 7 7 7 7 7
20 20 20 17 14 13 14 14 13 13 13 12 12 12 11 11 10 10 9 9 9 9 9 9 8 8 7 7 6 6 5 4 4 3 3 3 3 4 4 4 4 4 4 3 3 3 3 3 4 4 3 3 3 3 4 4 5 5 6 7 7 8 8 9 9 10 10 10 10 9 8 8 7 7 7 8 8 8 8 8 8 7 7 7 7 7
21 21 20 18 16 15 14 13 14 14 13 13 12 12 11 11 11 11 10 10 9 9 9 9 9 9 8 8 7 6 6 5 5 4 4 4 4 5 5 5 6 6 6 6 5 4 4 3 3 3 3 3 4 4 5 6 6 7 7 8 8 9 9 9 10 10 10 10 9 8 7 6 6 6 6 6 7 7 7 7 7 7 7 7 7 7
19 20 19 17 16 16 14 15 15 15 15 14 13 12 11 11 11 11 12 11 11 10 10 10 10 10 9 9 8 7 7 6 6 6 5 5 6 6 6 6 7 7 7 7 7 6 5 4 4 4 5 6 6 7 8 8 9 9 9 9 9 9 9 9 9 9 9 8 8 7 6 5 5 5 5 5 5 6 6 6 6 7 7 7 7 7
18 18 16 15 15 15 14 15 16 16 16 14 12 11 11 11 11 11 12 12 12 11 11 11 11 11 10 10 9 8 8 8 7 7 7 7 7 7 7 8 8 8 8 8 8 8 8 7 7 7 7 9 9 10 10 11 11 11 11 10 10 9 9 9 8 8 7 7 6 6 5 5 5 5 5 5 5 5 5 5 5 5 6 6 6 6
19 18 16 14 14 15 14 14 15 16 16 15 12 11 12 13 13 12 11 12 13 12 12 11 11 11 11 10 9 9 9 9 8 8 8 8 8 9 9 9 9 9 9 9 9 10 10 10 10 10 11 11 12 12 12 13 13 12 12 11 10 9 8 7 7 7 6 6 6 6 5 5 5 5 5 4 4 4 4 4 4 4 5 5 5 5
18 18 16 14 13 14 15 16 16 15 15 14 14 13 14 14 14 13 12 12 12 12 11 11 11 11 11 10 10 10 10 9 9 9 9 9 10 10 10 10 10 11 10 10 11 11 11 12 12 13 13 13 13 13 14 13 13 11 10 8 7 7 6 6 6 6 6 6 6 5 5 5 5 5 4 4 4 4 4 4 4 4 4 4 4 4
17 17 14 13 13 14 15 16 17 17 16 15 14 14 14 14 15 14 12 12 12 12 11 11 11 11 10 10 10 11 10 10 10 10 10 11 11 11 11 11 11 11 11 11 12 12 12 13 13 13 13 13 13 13 13 12 10 8 7 6 5 5 5 5 5 6 6 6 6 5 5 5 5 4 4 4 4 4 4 4 5 5 5 5 5 5
18 17 15 14 15 15 15 17 17 16 16 15 14 13 13 13 14 14 12 13 13 12 11 9 8 8 9 10 11 12 11 11 11 11 11 11 12 12 12 11 11 12 12 12 12 12 12 12 12 12 12 12 11 11 10 8 7 5 5 5 5 5 5 5 5 5 5 5 5 5 5 5 5 4 4 4 4 4 4 5 5 5 5 5 5 5
18 17 16 16 16 16 16 17 17 16 16 15 14 13 13 13 14 14 13 13 13 12 10 8 5 4 4 7 9 11 12 11 11 12 11 11 11 12 12 12 12 12 12 11 11 10 10 9 9 9 9 9 9 8 7 5 5 4 4 4 5 5 5 5 5 5 5 5 5 5 5 4 4 4 4 4 4 4 4 4 5 5 5 5 5 5
18 17 16 16 17 17 18 18 17 17 16 15 14 13 13 13 14 14 13 13 12 11 9 8 6 4 3 3 5 8 9 9 10 10 10 11 11 11 12 12 11 11 10 9 8 8 7 7 7 7 7 7 7 6 5 4 4 4 4 4 5 4 4 4 4 5 6 5 5 4 4 4 4 4 4 4 4 4 4 4 4 5 5 5 5 5
18 17 17 16 17 18 18 19 18 17 16 15 14 14 14 13 13 13 13 12 12 11 9 8 7 6 4 3 4 7 7 7 8 8 9 10 11 11 11 10 9 8 7 6 6 6 6 6 6 7 6 6 6 6 5 4 4 4 4 4 4 4 4 4 5 6 6 5 4 3 3 4 3 3 3 3 3 4 4 4 4 4 4 5 5 5
17 17 17 16 17 17 18 19 18 17 16 14 14 14 14 13 13 12 12 12 11 11 10 9 8 7 6 6 6 7 7 7 7 7 8 10 11 11 9 8 7 6 5 5 5 5 5 6 6 6 6 6 6 6 5 5 4 4 4 4 4 4 4 4 5 6 5 4 3 3 3 4 4 4 3 3 3 3 4 4 4 4 4 4 4 5
14 15 15 14 14 15 16 17 16 15 13 13 12 13 13 13 12 12 12 11 10 10 10 9 9 8 7 7 7 7 8 8 7 7 7 8 9 9 7 6 5 5 4 4 4 5 5 5 5 6 6 6 6 6 6 5 4 4 4 4 3 4 4 4 5 5 4 3 3 3 3 4 4 4 4 4 4 4 4 4 5 5 5 5 4 4
10 11 12 11 11 11 12 13 13 13 12 12 12 12 12 12 12 12 11 10 9 9 9 8 7 7 7 7 8 9 10 9 8 7 6 6 7 7 5 5 5 5 4 3 4 4 4 4 5 6 6 7 7 7 6 5 4 3 3 3 3 4 4 4 4 3 3 3 4 4 4 4 4 4 4 5 5 5 5 5 5 6 6 6 5 5
7 8 9 10 9 8 8 10 11 12 11 11 10 10 10 10 10 10 9 8 7 7 7 6 7 8 8 9 9 10 10 10 9 7 5 4 4 4 4 4 5 5 4 4 4 4 4 4 5 6 7 8 8 7 6 5 4 3 3 3 3 3 3 3 3 3 4 4 4 4 4 5 5 5 5 5 5 6 6 6 6 6 6 6 6 6
6 7 8 8 8 8 7 8 10 11 11 11 9 8 7 7 7 6 6 5 6 6 6 7 8 8 8 9 9 9 9 8 7 7 5 4 4 4 4 4 5 5 5 5 5 5 5 5 6 7 8 8 8 6 5 4 3 3 3 3 3 2 2 3 3 4 4 4 4 5 5 5 5 5 5 5 5 5 6 6 6 6 7 7 7 7
6 6 7 7 7 7 7 8 10 11 12 11 10 10 9 8 7 7 7 6 6 6 7 7 7 7 7 7 6 7 7 7 6 6 6 4 4 5 5 6 6 6 6 6 6 6 6 6 7 8 9 8 6 4 2 3 3 3 3 3 3 3 3 3 4 4 4 5 5 5 5 5 5 5 5 5 5 5 6 6 6 6 7 7 7 7
6 6 7 7 7 8 8 8 9 10 11 11 10 10 9 8 8 7 7 7 7 7 6 6 5 5 5 5 5 5 5 6 6 6 6 4 4 5 6 7 7 7 7 7 7 7 7 7 7 8 7 6 4 4 4 4 4 4 4 4 4 4 4 5 6 6 6 5 5 5 5 5 5 5 5 5 5 5 6 6 6 6 7 7 7 7
6 6 6 7 7 7 8 8 9 9 9 9 9 9 8 8 7 7 7 7 7 6 6 5 4 4 4 4 4 4 5 6 6 6 6 6 4 4 6 6 6 6 7 7 8 7 7 7 7 6 5 5 6 8 8 7 6 6 5 5 5 6 7 8 9 8 7 6 5 5 5 5 5 5 5 5 6 6 6 6 6 6 7 7 7 8
6 6 6 6 6 6 6 6 7 7 7 7 7 7 7 7 6 6 7 6 6 5 5 5 4 4 3 2 3 4 5 6 7 7 7 6 4 4 5 5 5 6 7 8 8 8 7 6 5 5 5 6 8 9 10 10 9 7 6 5 6 8 10 11 10 9 7 5 5 4 4 5 5 5 5 6 6 6 6 6 6 6 7 7 8 8
8 8 8 8 8 7 7 7 6 6 5 5 5 5 5 5 5 5 5 5 5 5 5 5 4 4 3 4 5 7 7 7 8 8 8 6 5 5 5 5 5 5 6 7 7 6 5 4 4 5 6 7 8 10 10 10 9 8 6 7 9 11 12 11 10 8 7 6 5 5 5 5 5 5 6 6 6 6 6 6 6 6 7 7 8 8
8 9 9 10 10 10 9 9 9 8 6 5 4 4 5 5 4 4 4 4 4 4 4 4 4 4 4 4 5 5 5 5 6 7 7 6 5 4 4 4 4 5 5 5 4 3 3 3 3 5 6 7 8 9 10 10 9 8 8 9 11 12 12 11 10 9 8 7 7 7 6 6 6 6 6 7 7 7 6 6 6 6 7 8 8 8
8 8 9 9 10 10 10 11 11 10 10 8 7 6 6 5 5 5 5 5 5 5 5 5 5 5 5 3 2 1 3 2 3 5 5 5 4 3 3 3 4 5 5 3 3 2 1 1 3 4 5 7 8 8 9 9 9 9 10 11 13 12 11 10 9 9 9 9 9 9 9 9 9 9 8 8 8 7 7 6 6 6 7 7 7 8
7 8 9 9 9 10 11 11 11 12 11 11 10 9 8 6 6 6 6 6 6 6 6 6 6 6 6 6 4 3 2 1 2 3 4 4 4 4 4 4 4 5 6 4 3 2 1 2 2 3 5 6 7 8 9 9 10 11 12 13 12 10 8 8 8 9 10 10 11 11 11 12 12 11 11 11 10 9 8 6 6 6 6 7 7 8
6 7 8 9 9 10 11 11 12 12 12 12 11 10 9 8 7 7 7 7 7 7 7 7 6 6 7 7 8 6 4 4 4 4 5 5 4 5 5 6 5 6 6 6 5 5 3 3 3 3 5 7 8 9 10 11 11 12 12 11 9 7 7 7 8 9 10 11 11 11 12 12 12 12 12 11 10 9 8 7 6 5 6 7 7 8
6 7 8 9 9 10 10 11 11 12 12 12 12 12 11 10 9 9 9 9 9 8 8 7 7 7 7 8 8 8 7 6 6 7 7 7 6 6 6 7 7 7 6 5 5 5 5 6 6 5 6 8 10 11 11 12 11 11 10 9 8 8 9 9 10 10 10 10 10 11 11 11 11 11 11 11 10 9 8 7 6 5 5 6 7 8
5 6 7 8 8 9 9 10 10 11 11 11 12 12 12 11 11 10 10 10 9 9 8 8 7 7 7 8 8 8 7 5 5 7 7 7 7 6 7 7 7 7 6 6 5 4 4 6 7 6 6 8 11 13 12 10 9 8 8 9 9 11 12 12 11 10 10 9 9 10 10 10 10 10 10 10 9 9 8 8 7 7 7 7 7 7
5 6 7 7 8 8 9 9 10 10 10 11 11 12 12 12 12 12 11 11 10 9 9 8 8 7 7 8 8 8 6 5 5 6 6 7 7 7 6 6 7 7 7 7 6 5 4 5 7 8 8 9 9 10 9 8 7 8 9 11 13 14 14 12 11 9 9 8 8 8 8 9 9 9 9 9 9 10 10 10 10 10 9 9 8 8
5 6 6 6 7 8 9 9 10 10 10 11 11 12 12 12 12 12 12 11 10 10 9 8 8 8 8 8 8 7 6 5 6 6 7 7 7 7 7 7 7 8 8 8 8 7 7 7 8 9 10 10 8 6 6 8 11 13 14 15 15 15 13 10 8 8 7 7 7 7 8 8 8 8 9 9 10 10 11 11 11 11 11 11 11 10
4 5 5 5 6 6 7 8 9 9 10 10 11 11 11 11 11 11 11 11 10 10 9 9 8 8 8 8 8 8 8 7 8 8 8 8 9 9 9 9 9 10 10 10 10 9 9 8 8 8 8 9 10 10 11 13 15 16 17 17 16 13 9 6 6 6 7 7 7 7 7 8 8 8 9 10 11 11 11 12 12 12 12 12 12 12
3 3 3 4 4 5 5 6 7 7 8 8 9 9 9 9 9 9 9 9 9 9 9 9 9 9 9 9 9 9 9 9 10 10 10 10 11 11 11 11 11 11 11 11 11 11 11 10 9 8 8 9 10 12 13 14 15 17 18 18 15 11 7 4 5 6 7 7 7 7 7 7 8 8 9 10 11 12 12 12 12 12 12 12 12 12
2 2 3 3 3 3 4 4 5 5 6 6 6 6 7 7 7 8 8 8 8 8 9 9 9 9 9 10 10 11 11 11 12 12 12 12 12 12 12 13 12 12 12 11 12 12 12 13 13 13 13 11 12 13 14 14 15 17 17 16 14 10 7 6 5 6 7 7 7 7 7 7 8 8 9 11 11 12 12 12 12 12 12 12 12 11
2 2 2 2 2 3 3 4 4 4 5 5 5 6 6 6 7 7 8 8 8 8 9 9 10 10 11 11 12 12 13 13 13 13 13 13 13 13 13 13 13 13 12 12 13 13 14 14 15 16 16 15 15 15 16 16 16 15 14 13 14 15 13 9 6 6 7 7 7 7 7 8 8 9 10 11 12 12 12 12 12 12 11 11 11 10
1 1 1 2 2 2 3 4 4 4 5 5 6 6 6 7 7 7 8 8 8 9 9 10 10 11 12 13 13 14 14 14 14 13 13 13 13 13 13 13 13 13 13 13 14 14 15 15 15 16 15 14 13 13 14 15 15 14 13 14 15 16 13 7 4 5 6 6 7 7 7 8 9 10 11 11 12 12 12 12 12 11 11 10 10 9
3 2 1 1 2 3 4 4 4 4 5 5 6 6 7 7 8 8 8 9 9 10 10 11 12 12 13 14 14 14 13 12 12 12 11 11 11 11 12 12 13 13 13 14 14 15 15 15 15 15 15 14 13 13 14 14 14 14 13 13 13 12 9 5 3 4 6 6 7 8 8 9 10 10 11 12 12 12 12 12 12 11 11 10 10 9
5 5 4 4 4 4 4 4 5 5 5 5 6 6 7 7 8 9 9 10 10 11 11 12 12 13 13 13 13 12 11 10 10 9 9 9 9 10 11 11 12 13 13 14 14 14 14 14 14 14 14 13 13 13 14 14 14 14 14 13 13 12 11 10 9 9 9 9 9 8 9 9 10 11 12 12 12 11 11 12 12 12 11 11 11 10
8 8 7 6 6 6 6 6 6 6 6 6 6 6 7 7 8 9 9 10 10 11 11 11 11 10 9 10 10 10 9 8 8 8 8 8 8 9 10 10 11 12 13 14 14 14 14 13 13 13 13 12 13 14 14 14 14 15 15 14 14 14 15 15 14 12 12 11 9 8 8 9 10 10 11 11 11 11 11 11 12 12 12 12 12 11
11 10 10 9 8 8 8 7 7 7 7 7 7 7 7 8 8 9 9 10 10 10 10 11 10 9 8 8 8 8 7 8 8 8 8 8 8 8 9 10 10 11 12 12 13 13 14 14 14 13 12 12 13 14 15 14 14 14 15 15 15 15 16 16 14 13 12 11 10 8 7 8 9 10 11 11 11 11 11 11 11 11 11 11 12 12
13 12 12 11 10 10 9 9 9 9 9 8 8 8 8 8 8 9 10 10 10 10 10 10 10 10 10 10 9 8 8 8 8 8 8 8 8 9 9 9 10 10 11 12 12 12 13 13 13 13 13 13 13 14 14 14 14 14 15 16 16 16 17 17 15 12 11 10 8 7 7 8 9 10 11 11 12 13 13 12 11 11 11 11 11 12
14 14 13 12 12 12 11 10 10 10 10 10 9 9 8 9 9 10 10 10 10 10 10 10 11 11 11 11 11 10 10 9 9 9 9 9 9 9 9 9 9 10 10 11 12 13 13 13 13 14 14 14 14 14 14 14 14 14 15 15 15 16 17 18 15 12 9 8 7 7 7 8 10 11 12 13 14 14 14 13 12 11 11 10 11 12
16 15 14 14 14 13 13 12 12 11 11 11 10 10 10 10 10 11 11 11 11 11 11 11 11 12 12 12 12 11 11 10 10 10 10 10 10 10 10 10 9 9 9 10 11 12 13 14 15 15 16 17 17 16 16 15 15 14 14 14 14 15 16 17 15 12 9 8 7 7 7 8 9 10 12 14 16 17 16 16 15 13 11 11 11 11
17 16 16 15 15 15 14 13 13 13 12 11 11 11 11 11 11 11 11 11 12 12 12 12 12 12 13 13 12 12 11 11 11 10 10 10 10 10 10 10 9 8 8 8 9 9 11 12 14 16 17 18 19 19 18 17 16 15 14 14 14 15 15 16 14 11 9 8 8 8 8 9 9 10 11 13 16 17 18 18 17 15 13 12 12 12
18 17 17 16 16 15 15 14 14 13 13 12 11 11 11 12 12 12 12 12 12 13 13 13 13 13 13 13 13 12 12 12 11 11 11 10 10 10 10 9 8 7 6 6 6 7 7 8 9 12 15 16 17 18 18 18 16 14 14 14 14 14 14 15 14 11 9 9 9 9 9 10 9 9 10 12 14 16 18 19 19 17 15 13 12 12
Wind_Direction
191 192 194 198 201 202 205 211 215 220 229 236 241 245 248 246 239 233 230 227 224 221 218 218 220 221 224 227 235 244 248 253 258 263 266 270 275 280 284 287 287 285 280 277 277 278 279 283 289 295 301 310 300 153 156 156 159 161 157 140 134 142 150 150 155 155 136 153 207 225 236 249 256 263 274 281 286 293 298 304 305 308 312 308 305 304
187 188 189 195 199 202 204 211 216 221 229 237 240 239 237 232 225 219 216 217 219 219 219 220 220 222 225 226 233 244 252 256 259 262 265 268 270 273 277 280 280 276 266 258 261 271 278 281 284 287 27 108 121 136 153 171 180 183 184 181 178 176 178 178 185 188 185 203 230 244 247 253 253 256 266 277 286 293 298 302 301 300 301 304 308 311
178 180 184 190 196 200 203 210 216 220 226 231 230 225 218 212 208 206 203 204 209 213 214 216 218 221 225 227 232 241 250 253 254 257 260 264 267 270 274 278 278 274 261 239 227 262 294 296 285 134 117 114 119 132 151 177 192 201 207 209 212 217 224 232 237 239 236 241 251 256 257 261 262 263 268 274 280 284 287 290 291 291 294 298 303 306
173 175 180 185 191 197 202 207 212 218 222 221 217 211 205 199 197 197 197 196 197 201 204 205 209 215 220 223 225 228 234 233 232 236 248 263 281 309 342 358 4 11 25 55 70 56 15 357 61 113 114 114 113 124 179 250 267 270 269 262 260 261 263 262 262 261 258 257 260 263 264 266 268 271 272 275 278 279 281 286 287 286 288 292 297 300
174 175 178 181 185 192 199 203 207 212 216 212 204 197 195 193 192 194 196 194 191 189 191 192 196 202 207 209 202 190 175 183 178 157 124 92 74 61 53 52 52 53 55 59 64 68 69 71 90 108 116 116 88 323 309 307 307 307 304 295 286 282 280 278 277 275 272 269 269 271 271 270 270 272 273 274 275 276 279 284 287 287 285 288 292 296
175 178 179 181 184 189 194 197 201 205 206 204 198 192 190 190 191 195 198 197 191 186 185 186 189 192 194 191 180 169 160 166 166 152 132 114 99 86 76 77 80 82 87 90 95 100 102 105 120 163 244 278 292 299 303 305 306 306 304 298 291 287 286 285 285 283 282 281 279 278 277 275 275 274 274 273 274 275 276 280 284 286 287 288 289 291
176 179 181 183 186 189 190 191 196 201 201 200 197 193 190 190 193 197 202 202 196 189 185 186 188 190 188 185 179 176 176 177 177 173 159 147 138 129 119 123 128 131 131 131 132 141 175 229 253 264 275 281 286 291 293 296 296 293 290 286 284 284 285 287 288 290 291 290 288 287 284 283 281 279 278 277 276 275 274 275 278 282 285 286 287 289
175 179 182 184 185 188 189 191 195 200 203 200 196 191 189 191 194 198 201 203 199 193 189 190 192 192 190 188 188 191 195 197 200 203 199 189 183 180 184 192 195 195 195 206 230 256 263 267 269 272 277 283 286 287 286 285 279 274 271 272 274 278 283 287 290 293 295 295 294 293 291 289 288 286 285 283 280 277 275 274 275 278 282 284 284 285
173 176 181 183 183 182 186 191 195 198 201 199 194 188 186 187 191 195 197 198 198 197 194 196 197 197 196 195 197 203 210 216 223 230 235 235 233 232 235 238 238 238 240 245 255 268 273 274 275 276 279 280 279 275 269 262 259 259 262 267 272 278 284 288 292 295 297 297 297 295 293 292 292 291 291 289 286 283 279 276 276 277 278 278 280 281
175 176 179 183 184 183 182 187 192 193 193 192 191 188 186 185 186 188 191 194 196 196 197 199 201 202 202 203 205 211 219 228 236 246 255 261 264 265 264 263 262 260 259 260 262 264 266 269 271 271 266 258 255 255 256 254 256 261 266 272 277 283 286 290 294 297 299 300 299 297 294 292 292 292 292 292 292 290 287 283 279 277 276 276 276 278
174 176 177 179 183 186 185 186 186 186 186 187 187 188 189 188 188 188 189 190 192 194 197 199 202 204 206 208 212 217 225 234 243 251 260 267 273 274 272 271 269 269 269 269 268 265 259 254 253 253 252 249 251 256 262 265 268 272 275 279 282 285 288 292 296 299 301 302 302 300 296 293 291 291 292 294 297 298 297 294 289 284 279 278 276 275
170 174 175 176 180 183 185 185 183 182 183 185 187 190 192 193 193 192 190 190 191 193 196 199 202 206 209 212 216 222 229 236 242 249 256 263 267 269 268 267 268 268 270 271 271 268 264 258 253 252 255 258 261 266 271 275 278 280 281 282 283 285 288 292 296 299 302 304 305 303 300 297 293 291 292 296 300 301 301 300 298 294 290 287 284 281
170 173 174 176 178 180 181 180 180 182 185 188 190 192 193 194 195 194 192 193 193 193 196 199 202 207 211 215 219 225 231 237 243 249 254 258 261 262 263 262 262 264 266 267 268 268 267 265 261 260 262 266 269 272 277 280 282 283 283 282 282 284 287 290 293 297 301 304 306 306 305 303 300 298 298 298 298 299 298 297 296 296 296 295 293 292
169 171 172 174 177 180 181 180 179 181 186 191 195 196 196 195 194 194 192 192 193 194 196 199 202 206 211 216 222 228 234 239 245 250 254 256 259 260 261 260 260 261 263 265 266 268 268 267 264 263 265 268 271 275 279 282 283 284 283 281 280 281 283 287 291 295 300 303 304 305 305 304 303 302 299 296 294 295 295 294 293 292 293 294 295 295
168 170 171 174 178 181 183 184 184 185 189 193 197 199 199 195 194 193 191 189 190 193 195 199 204 209 215 219 225 231 238 242 246 250 252 255 259 262 263 262 262 263 265 267 268 270 270 268 265 263 264 267 271 275 278 281 283 283 281 278 276 277 280 284 290 295 299 301 302 303 302 302 301 300 295 291 290 290 291 292 293 293 292 293 294 294
173 173 175 177 179 182 185 188 189 189 191 194 197 199 198 193 191 191 190 188 188 190 191 195 204 216 227 230 233 237 241 245 248 250 250 254 259 263 265 265 265 267 270 271 271 271 270 268 265 263 263 265 269 273 276 278 280 279 276 273 273 275 278 283 290 294 298 299 300 300 300 300 299 297 294 290 287 286 288 290 292 292 292 292 292 291
175 177 180 180 181 184 187 189 190 192 193 193 194 195 193 190 188 188 189 189 189 189 192 197 205 221 234 238 241 244 244 244 248 249 249 252 259 264 267 270 272 273 274 274 272 270 268 265 262 260 261 263 265 267 269 271 273 273 273 273 273 274 277 283 289 292 293 294 297 299 299 299 298 297 296 293 287 284 284 286 289 291 292 291 291 290
178 182 184 184 184 186 188 189 191 193 195 194 193 193 192 191 190 189 191 192 191 190 196 202 210 220 228 215 237 248 248 242 243 247 250 252 259 266 270 273 274 274 273 271 269 266 262 259 256 256 257 259 259 258 259 263 268 271 274 275 273 273 275 282 286 287 284 285 290 297 298 296 295 295 296 296 297 295 291 291 291 291 292 292 290 288
183 187 189 189 190 191 191 192 193 195 196 196 194 191 188 189 190 192 194 197 198 198 202 208 217 228 235 224 239 251 254 246 244 251 260 262 266 270 273 273 272 268 263 261 260 259 256 253 252 253 254 255 254 251 250 256 263 269 275 274 271 269 272 276 281 283 283 282 288 295 293 290 287 287 290 298 303 304 304 302 299 297 295 292 289 286
190 193 195 196 196 195 195 197 199 201 200 200 197 193 189 189 192 195 198 203 207 210 215 216 221 230 238 238 244 252 258 257 259 265 275 277 277 277 274 268 259 250 247 248 252 255 255 254 253 253 253 254 253 251 249 253 259 265 271 269 265 262 265 273 282 289 293 297 297 293 289 287 285 284 285 287 286 287 291 291 291 289 287 286 285 282
200 200 202 204 204 203 203 204 206 206 206 203 200 196 194 195 197 201 206 211 215 220 227 228 229 232 239 238 244 254 262 266 271 278 283 284 282 278 268 252 239 231 232 240 251 257 257 256 256 255 254 255 255 253 250 251 253 258 263 260 254 254 264 280 292 301 308 309 301 292 289 288 287 285 284 284 286 286 282 273 267 265 264 266 269 272
210 208 206 207 211 214 215 213 209 207 206 206 203 201 201 202 204 208 215 219 222 226 230 231 232 235 240 243 250 259 266 270 273 277 281 280 276 270 254 236 226 226 231 242 253 259 261 261 262 261 260 259 260 259 254 246 242 245 250 244 244 252 269 288 301 305 304 297 292 290 290 290 289 286 285 285 285 285 285 280 275 270 265 262 262 263
212 212 208 207 209 215 220 216 209 205 204 205 207 208 212 213 215 218 223 225 225 224 227 230 237 245 251 253 256 261 265 267 267 267 266 264 262 257 243 232 231 236 244 251 258 262 265 269 269 267 265 264 265 264 257 240 227 227 233 232 239 254 275 290 296 296 294 291 289 289 289 288 288 288 287 287 286 286 285 284 283 280 278 275 274 273
200 204 205 205 205 206 209 208 203 199 197 197 200 204 208 209 210 210 212 216 219 223 231 240 248 254 257 258 258 258 259 257 255 250 244 252 260 258 246 244 247 251 256 260 264 268 273 278 275 270 267 266 267 265 251 220 203 205 215 221 231 251 277 291 297 297 296 295 292 289 286 285 286 286 286 286 286 287 286 284 282 280 278 275 273 271
190 192 195 197 197 197 195 195 195 194 193 192 193 194 196 197 199 202 206 213 223 233 242 247 248 251 257 257 254 252 250 244 238 233 231 244 262 266 260 260 261 261 262 263 267 272 280 285 280 272 268 266 262 249 206 174 174 185 197 208 220 236 257 274 286 291 293 292 291 288 286 283 282 283 284 285 286 287 286 286 283 281 279 276 273 270
179 180 182 185 185 184 183 184 187 190 192 194 195 198 200 202 205 210 217 224 231 237 240 239 238 244 255 254 246 238 237 232 229 228 231 242 262 272 268 268 267 266 267 270 273 280 288 289 282 272 265 253 225 181 153 154 165 180 194 209 222 238 259 274 280 283 284 286 287 285 282 280 280 280 282 284 286 287 287 286 285 282 280 278 274 271
165 167 171 173 174 174 175 179 183 188 191 196 200 204 209 212 215 216 218 225 230 232 226 220 228 244 256 257 243 229 224 229 231 234 239 247 257 267 269 270 269 270 275 279 284 289 293 289 278 266 251 225 195 178 171 173 180 190 205 223 245 268 284 291 293 291 286 283 283 282 280 277 277 279 281 284 286 287 287 286 285 283 280 277 272 267
145 148 152 152 152 156 167 177 184 190 195 200 206 213 220 224 222 218 218 224 226 222 218 221 233 249 260 259 258 252 242 244 243 242 244 243 246 256 262 266 271 276 284 291 295 294 292 282 266 247 225 206 197 192 190 191 196 205 222 249 276 292 299 302 300 295 287 277 273 274 276 276 277 279 282 285 286 287 286 286 285 283 279 274 267 263
147 150 150 143 141 149 162 167 171 180 197 208 218 228 235 234 227 220 218 220 216 213 217 229 240 252 265 278 282 277 266 256 247 242 241 235 237 249 256 262 268 279 292 301 301 295 285 266 243 221 207 202 201 201 203 206 211 221 241 270 290 300 304 302 298 290 277 262 254 253 259 265 270 274 278 280 283 284 285 285 285 283 278 274 270 268
163 165 162 158 160 164 168 166 164 166 175 190 213 234 243 240 230 218 216 218 218 219 226 239 249 256 263 278 286 285 272 254 239 233 232 225 228 241 253 259 267 280 296 308 306 295 276 241 222 211 205 206 208 210 213 216 222 235 256 280 295 301 302 298 292 283 272 260 251 246 247 251 257 263 268 272 275 278 280 282 282 279 276 274 272 271
173 175 176 177 177 178 179 178 176 174 174 180 193 211 227 234 231 226 226 231 235 239 244 250 255 256 255 251 252 281 281 244 214 214 217 212 217 235 249 267 273 280 292 303 316 315 290 243 215 209 209 213 217 221 225 228 235 250 269 285 295 299 298 293 287 280 274 267 261 256 254 255 257 261 265 268 269 270 270 274 276 275 272 272 272 272
185 188 190 191 191 192 191 191 190 189 188 190 196 204 215 224 230 233 237 242 248 252 255 257 257 257 253 243 235 244 280 236 201 205 209 208 219 239 247 264 272 277 284 286 287 282 242 311 255 215 219 222 227 232 238 244 253 266 278 287 293 296 295 290 284 279 275 271 268 265 263 263 264 266 268 270 270 268 265 265 266 269 271 273 274 275
196 199 202 203 204 203 202 202 202 202 202 203 206 210 217 223 229 234 240 246 252 255 255 255 254 254 253 250 249 252 260 252 243 241 240 237 242 251 256 260 263 267 273 275 273 267 260 285 282 258 246 242 242 245 252 260 269 277 283 288 292 296 297 294 288 282 277 273 270 268 267 268 269 270 272 273 272 270 265 260 257 261 270 274 276 278
202 204 206 207 208 209 209 209 209 210 211 212 215 219 223 228 232 236 241 246 251 253 254 252 251 250 251 253 256 260 264 259 256 258 260 259 257 258 260 259 258 258 261 263 263 261 262 263 268 273 271 267 264 266 270 275 280 283 286 291 295 301 305 303 296 288 280 274 270 268 267 268 269 271 272 272 271 267 262 257 253 253 261 269 274 278
204 205 207 209 211 212 214 215 216 217 218 219 222 226 230 234 238 241 244 246 248 250 251 252 252 252 253 254 257 264 273 268 265 265 267 267 263 259 259 255 251 249 248 249 250 252 255 257 260 266 276 282 284 285 285 286 287 289 291 295 300 304 308 305 299 289 280 272 268 266 264 265 265 266 267 267 265 261 257 253 248 244 243 250 259 269
210 209 211 213 215 217 219 221 224 225 227 229 232 234 237 239 242 245 247 247 246 245 245 246 250 253 256 258 261 267 276 278 274 270 270 268 263 258 254 250 247 245 243 243 245 250 259 264 265 268 274 282 288 291 290 287 286 287 290 294 299 303 306 302 294 283 274 267 262 260 259 258 258 258 258 258 257 256 255 254 251 248 244 240 242 251
219 219 220 221 223 225 228 230 232 234 236 237 239 241 243 244 246 247 247 245 242 240 239 241 244 249 254 260 263 265 269 270 269 268 268 268 265 258 251 250 250 249 247 246 249 253 260 268 274 275 275 274 275 278 282 285 287 288 290 295 300 305 306 298 284 271 263 258 254 252 251 250 249 248 249 251 253 254 255 256 256 255 253 250 247 246
221 222 222 224 228 231 234 237 238 240 240 241 243 244 245 245 245 245 243 241 238 236 237 239 243 247 251 257 261 265 266 265 265 266 267 267 265 262 257 255 256 256 256 256 256 258 261 266 272 276 275 272 270 273 279 286 290 293 296 300 305 308 307 293 271 257 252 250 247 244 243 242 243 243 245 248 250 252 253 254 256 258 259 259 257 256
200 200 200 206 216 225 231 235 238 239 240 240 240 240 240 240 238 237 235 234 233 234 237 241 245 248 251 255 260 264 266 266 266 266 266 265 265 263 262 260 260 261 263 263 263 262 261 261 262 266 273 277 279 281 285 289 292 297 301 305 307 307 302 281 259 249 246 243 239 235 234 236 239 243 246 249 251 253 254 254 255 256 258 260 262 262
168 164 165 179 198 213 223 230 234 236 236 234 233 231 229 228 227 227 228 229 232 236 240 244 248 252 254 257 261 264 266 268 268 267 266 264 263 262 262 261 262 264 265 266 265 264 263 261 260 262 266 272 279 284 288 289 292 298 304 308 307 304 299 284 264 249 238 233 228 224 226 232 239 245 250 252 254 256 258 258 257 257 258 260 262 263
168 160 155 170 194 217 230 238 240 240 237 233 230 227 226 225 225 226 229 232 235 240 245 249 252 255 258 261 263 266 268 269 269 267 265 263 261 260 259 259 260 262 264 264 265 265 265 264 264 264 266 269 275 280 283 286 290 296 301 301 300 300 300 292 270 241 225 220 219 223 231 240 248 252 253 253 254 256 259 260 261 260 259 260 262 265
227 198 161 172 196 223 241 250 252 251 247 242 238 236 235 235 236 237 239 241 244 247 250 254 257 261 263 264 266 267 269 270 269 267 264 260 257 255 255 256 257 259 261 263 264 265 265 266 266 265 265 267 272 277 281 284 288 291 292 293 297 301 302 294 253 217 212 216 224 236 249 259 262 261 257 255 254 254 256 259 259 260 259 258 259 262
267 270 257 236 234 244 253 259 262 261 258 254 251 249 248 249 249 249 251 252 254 257 261 265 268 270 272 272 271 271 270 268 266 264 260 257 253 252 252 253 255 257 259 261 263 265 266 266 266 265 265 265 266 269 274 280 285 287 286 290 296 300 299 288 247 221 225 239 252 262 271 274 272 267 261 257 254 253 253 254 255 256 256 256 257 259
275 278 278 271 264 261 262 264 266 268 268 265 263 261 259 259 259 259 259 261 263 266 270 273 276 277 277 276 276 274 270 265 261 258 256 252 251 250 251 253 255 256 258 259 261 263 266 265 264 262 263 263 263 263 267 273 278 281 282 285 285 282 276 278 278 273 267 267 270 275 281 283 278 271 265 261 257 254 251 250 249 251 252 254 256 259
274 276 276 275 272 268 265 264 266 270 272 272 271 270 267 265 265 266 266 268 270 273 275 278 279 278 276 277 277 275 270 263 256 252 250 250 250 252 255 257 258 258 258 258 260 261 261 260 260 262 264 264 261 259 260 265 271 276 279 281 281 279 279 283 286 286 286 284 285 287 290 288 284 280 275 268 261 255 251 248 246 247 248 251 254 257
270 273 276 276 276 274 272 269 268 268 270 271 272 272 270 268 268 268 269 270 272 274 276 277 275 271 268 270 273 274 271 266 260 255 251 252 254 259 263 265 263 261 259 259 260 260 260 260 260 260 262 260 258 257 257 259 263 268 274 278 281 283 286 289 290 291 293 293 294 297 298 293 289 288 287 281 270 259 252 248 246 246 246 249 252 255
267 270 274 276 276 276 274 272 269 267 267 268 269 270 269 268 267 267 266 267 269 270 271 271 269 266 264 265 267 267 266 266 265 263 261 261 263 268 273 273 269 263 259 258 258 259 259 260 260 258 255 253 254 255 257 257 258 262 268 275 279 282 284 286 288 292 297 298 300 304 305 300 297 298 298 291 280 269 260 254 251 251 251 253 255 258
266 269 271 273 274 274 273 271 269 267 266 266 266 266 265 265 264 263 262 262 263 263 264 264 264 263 264 264 265 266 267 268 268 267 266 266 268 272 276 277 272 265 258 255 255 256 256 256 255 253 251 249 250 254 258 257 256 258 264 269 274 277 279 284 288 293 296 299 302 308 312 311 309 307 306 299 291 281 272 265 260 259 260 263 265 267
265 267 269 270 270 270 270 271 270 268 267 266 265 264 262 261 261 261 260 259 258 258 258 259 260 262 264 264 265 266 268 269 270 269 268 267 269 273 277 279 277 270 262 258 257 258 257 257 254 250 249 248 248 251 256 257 257 257 259 262 265 269 274 280 286 292 298 302 306 309 312 313 311 309 307 302 298 292 284 276 271 268 270 273 275 277
263 265 267 267 267 268 269 270 270 269 268 266 265 263 262 261 260 259 259 257 256 255 255 257 258 260 262 264 266 267 268 270 270 270 268 267 268 271 274 278 280 278 272 269 269 269 269 267 263 257 252 248 247 247 250 253 256 257 258 258 259 263 269 276 282 291 299 306 310 311 311 311 311 310 305 300 298 296 293 287 282 279 280 283 285 286
260 263 265 265 265 265 267 268 268 268 268 267 266 264 263 262 261 259 258 257 255 255 255 256 257 259 261 264 267 268 270 270 271 270 269 268 267 267 268 270 273 275 276 278 280 280 280 279 276 270 263 253 247 246 246 247 250 253 254 255 257 259 264 272 280 290 300 306 309 310 309 307 306 306 304 299 296 295 295 294 292 290 290 292 293 293